This is the latest recevied weather packets stored in our database for station/object DK9XR-14. If no packets are shown the sender has not sent any weather packets the latest 10 day(s).
| Time | Temp. | Humidity | Pressure | Rain* | Wind** | Luminosity | Snow |
|---|---|---|---|---|---|---|---|
| 1777464705 | 17.22° C | 36% | 1021.7 hPa | 0 mm | - | - | - |
| 1777464407 | 17.22° C | 37% | 1021.8 hPa | 0 mm | - | - | - |
| 1777464107 | 16.67° C | 35% | 1021.8 hPa | 0 mm | - | - | - |
| 1777463808 | 17.22° C | 35% | 1021.7 hPa | 0 mm | - | - | - |
| 1777463506 | 17.22° C | 34% | 1021.8 hPa | 0 mm | - | - | - |
| 1777463208 | 17.22° C | 38% | 1021.7 hPa | 0 mm | - | - | - |
| 1777462906 | 16.67° C | 38% | 1021.7 hPa | 0 mm | - | - | - |
| 1777462606 | 16.67° C | 36% | 1021.8 hPa | 0 mm | - | - | - |
| 1777462306 | 16.67° C | 37% | 1021.8 hPa | 0 mm | - | - | - |
| 1777462007 | 16.67° C | 36% | 1021.8 hPa | 0 mm | - | - | - |
| 1777461706 | 16.67° C | 38% | 1021.9 hPa | 0 mm | - | - | - |
| 1777461406 | 16.67° C | 39% | 1021.9 hPa | 0 mm | - | - | - |
| 1777461107 | 16.67° C | 38% | 1021.8 hPa | 0 mm | - | - | - |
| 1777460807 | 16.11° C | 38% | 1021.8 hPa | 0 mm | - | - | - |
| 1777460509 | 16.67° C | 39% | 1021.8 hPa | 0 mm | - | - | - |
| 1777460207 | 16.67° C | 40% | 1021.9 hPa | 0 mm | - | - | - |
| 1777459907 | 16.11° C | 40% | 1021.9 hPa | 0 mm | - | - | - |
| 1777459608 | 15.56° C | 39% | 1022.1 hPa | 0 mm | - | - | - |
| 1777459306 | 15.56° C | 39% | 1022.1 hPa | 0 mm | - | - | - |
| 1777459006 | 15.56° C | 41% | 1022.1 hPa | 0 mm | - | - | - |
| 1777458705 | 15.56° C | 41% | 1022.1 hPa | 0 mm | - | - | - |
| 1777458408 | 15.56° C | 41% | 1022 hPa | 0 mm | - | - | - |
| 1777458106 | 15.56° C | 42% | 1022.1 hPa | 0 mm | - | - | - |
| 1777457806 | 15.56° C | 43% | 1022.1 hPa | 0 mm | - | - | - |
| 1777457505 | 15.56° C | 42% | 1022 hPa | 0 mm | - | - | - |
* Rain latest hour (hover to see other rain measurements)
** Current wind speed in m/s (hover to see current wind gust speed)